Tropical Cyclones
[Index]
Main Index Home Page Stock Weather Photos Extreme Storms Discussion Storm News and Storm Chasing Reports Tropical Cyclones / Hurricanes / Typhoons Weather Data and Links Wild Fires / Bushfires Weather Observation Techniques Weather Picture Catalogue Tornado Pictures and Reports Stock Video Footage and DVDs for sale
Season 1979-1980 Tropical Cyclone CLARA Track Map
Season 1979-1980 Summaries: [BoM-AU] [JTWC-AU] [JTWC-SIO] [JTWC-SPAC] [JTWC-SH]
<<- Previous TC | BoM 1979-1980 Season | Next TC ->>

click for intensity scale information  Lat/long Grid: Show Hide

 Date Labels: Show Hide

Bureau of Meteorology Tropical Cyclone Data

Name: CLARA
Number: 600 / 197980_07

21 Jan 1980 00:00 UTC to 29 Jan 1980 00:00 UTC

    date/time    lat    long    hPa   cat  kts
1980-01-21 00    9.7    89.7   1001                     
1980-01-21 06    9.9    90.1    999                     
1980-01-21 12   10.0    90.4    998                     
1980-01-21 18   10.1    90.8    996                     
1980-01-22 00   10.3    91.1    993    1                
1980-01-22 06   10.8    91.8    988    1                
1980-01-22 12   11.3    92.5    992    1                
1980-01-22 18   12.0    93.5    996                     
1980-01-23 00   12.5    94.6    999                     
1980-01-23 06   12.8    96.3   1001                     
1980-01-23 12   12.2    97.8   1003                     
1980-01-23 18   11.5    99.4   1004                     
1980-01-24 00   12.0   101.0   1003                     
1980-01-24 06   12.9   102.0    999                     
1980-01-24 12   13.7   102.7    994    1                
1980-01-24 18   14.2   103.4    990    1                
1980-01-25 00   14.7   104.2    987    1                
1980-01-25 06   14.9   105.7    988    1                
1980-01-25 12   13.7   107.0    992    1                
1980-01-25 18   13.4   108.6    996                     
1980-01-26 00   13.9   110.1    994    1                
1980-01-26 06   15.2   112.1    987    1                
1980-01-26 12   17.0   113.3    982    2                
1980-01-26 15   17.8   113.2    980    2                
1980-01-26 18   18.4   112.3    983    2                
1980-01-27 00   19.0   110.7    988    1                
1980-01-27 06   20.4   109.9    994    1                
1980-01-27 12   21.6   108.6    998                     
1980-01-27 18   22.6   107.5   1000                     
1980-01-28 00   23.0   106.4   1001                     
1980-01-28 06   23.4   105.8   1002                     
1980-01-28 12   23.7   104.8   1003                     
1980-01-28 18   23.0   104.0   1004                     
1980-01-29 00   22.2   103.1   1005                     
Winds are 10-min average.

Tropical cyclone tracks developed by Michael Bath using data from the Bureau of Meteorology and Google Maps.


[Australian Severe Weather index] [Copyright Notice] [Email Contacts] [Search This Site] [Privacy Policy]
Document: tropical_cyclone_clara.htm Updated: 30 May 2013